Location: Marcé
(47.5801°N, 0.3280°W)
Time: 08:35:19
(UTC+01:00)

Vanguard 3 - Pass Details

Date: 13 December 2021
Orbit: 508 x 3260 km, 33.3° (Epoch: 24 January)

Event Time Altitude Azimuth Distance (km) Brightness Sun altitude
Rises 02:47:03 0° 237° (WSW) 6,008 - -57.0°
Reaches altitude 10° 02:50:46 10° 231° (SW) 5,303 - -56.5°
Maximum altitude 03:06:38 48° 165° (SSE) 3,841 - -54.3°
Exits shadow 03:10:04 45° 142° (SE) 4,001 10.4 -53.8°
Drops below altitude 10° 03:24:43 10° 100° (E) 6,001 11.9 -51.6°
Sets 03:29:15 0° 95° (E) 6,823 12.4 -50.9°
